#timestamp,LO_Frequency,Hit,StdDev 
1567764015.2,286046995.7,P
1567764035.0,286046996.7,N
1567764036.0,286046996.7,N
1567764055.8,286046998.7,N
1567764075.6,286047001.5,N
1567764095.5,286047003.8,N
1567764115.3,286047004.2,N
1567764135.1,286047004.4,N
1567764155.9,286047002.9,N
1567764175.7,286047009.0,N
1567764195.5,286047008.4,N
1567764215.4,286047009.8,N
1567764235.2,286047009.3,N
1567764255.1,286047009.3,N
1567764256.0,286047009.3,N
1567764275.8,286047010.7,N
1567764295.6,286047011.8,N
1567764315.5,286047009.3,N
1567764335.3,286047011.6,N
1567764355.1,286047014.0,N
1567764375.9,286047013.9,N
1567764395.7,286047011.1,N
1567764415.6,286047012.9,N
1567764435.4,286047011.1,N
1567764455.2,286047011.8,N
1567764475.1,286047010.4,N
1567764476.0,286047010.4,N
1567764495.8,286047008.3,N
1567764515.6,286047003.3,N
1567764535.5,286047000.9,N
1567764555.3,286047000.4,N
1567764575.2,286047000.1,N
1567764595.9,286047003.3,N
1567764615.7,286047007.1,N
1567764635.6,286047007.3,N
1567764655.4,286047006.6,N
1567764675.2,286047008.7,N
1567764695.1,286047007.7,N
1567764696.0,286047007.7,N
1567764715.8,286047010.1,N
1567764735.7,286047007.8,N
1567764755.5,286047010.8,N
1567764775.3,286047008.2,N
1567764795.2,286047009.0,N
1567764815.0,286047010.3,N
1567764815.9,286047010.3,N
1567764835.7,286047010.6,N
1567764855.6,286047011.9,Y
1567764875.4,286047001.8,P
1567764895.3,286047005.1,N
1567764915.1,286047007.0,N
1567764935.8,286047006.2,N
1567764955.7,286047010.5,Y
1567764975.5,286047003.7,P
1567764995.4,286047003.1,P
1567765015.2,286047005.8,P
1567765035.0,286047007.4,Y
1567765035.9,286047007.4,P
1567765055.8,286047002.2,N
1567765075.6,286047000.4,N
1567765095.4,286046998.7,N
1567765115.3,286046999.2,N
1567765135.1,286046996.6,N
1567765155.9,286046998.7,N
1567765175.7,286047002.2,N
1567765195.5,286047000.2,N
1567765215.4,286047001.7,N
1567765235.2,286047002.6,N
1567765255.0,286046998.2,N
1567765255.9,286046998.2,N
1567765275.8,286046998.4,N
1567765295.6,286046998.4,N
1567765315.5,286047000.5,N
1567765335.3,286047001.4,N
1567765355.1,286047006.0,N
1567765375.9,286047003.8,N
1567765395.7,286047004.2,N
1567765415.5,286047001.4,N
1567765435.4,286047002.3,N
1567765455.2,286046998.6,N
1567765475.1,286046997.1,N
1567765476.0,286046997.1,N
1567765495.8,286046997.7,N
1567765515.6,286046993.4,N
1567765535.5,286046994.0,N
1567765555.3,286046993.6,N
1567765575.1,286046996.3,N
1567765595.9,286046997.5,N
1567765615.7,286046995.8,N
1567765635.6,286046995.3,N
1567765655.4,286046996.8,N
1567765675.2,286046996.2,N
1567765695.1,286046994.0,N
1567765696.0,286046994.0,N
1567765715.8,286046993.6,N
1567765735.6,286046991.8,N
1567765755.5,286046990.1,N
1567765775.3,286046990.3,N
1567765795.2,286046992.3,N
1567765815.9,286046994.0,N
1567765835.7,286046995.4,N
1567765855.6,286046993.9,N
1567765875.4,286046993.8,N
1567765895.2,286046988.7,N
1567765915.1,286046987.8,N
1567765916.0,286046987.8,Y
1567765935.8,286046988.8,P
1567765955.7,286046986.9,P
1567765975.5,286046988.5,P
1567765995.3,286046992.8,N
1567766015.2,286046989.4,Y
1567766035.0,286047001.0,P
1567766035.9,286047001.0,N
1567766055.8,286047001.1,N
1567766075.6,286047001.1,N
1567766095.4,286047002.4,N
1567766115.3,286047001.8,N
1567766135.1,286047005.5,N
1567766136.0,286047005.5,N
1567766155.8,286047005.4,N
1567766175.7,286047005.5,N
1567766195.5,286047005.7,N
1567766215.3,286047005.8,N
1567766235.2,286047004.0,N
1567766255.0,286047002.7,N
1567766255.9,286047002.7,N
1567766275.8,286046998.6,N
1567766295.6,286047000.5,N
1567766315.4,286047003.2,N
1567766335.3,286047003.8,N
1567766355.1,286047001.7,N
1567766375.8,286047002.5,N
1567766395.7,286046998.8,N
1567766415.5,286046997.6,N
1567766435.4,286046997.1,N
1567766455.2,286046997.6,N
1567766475.0,286046997.9,N
1567766475.9,286046997.9,N
1567766495.8,286046993.3,N
1567766515.6,286046999.1,N
1567766535.4,286047003.8,N
1567766555.3,286047005.2,N
1567766575.1,286047005.9,N
1567766595.9,286047003.2,N
1567766615.7,286047002.1,N
1567766635.5,286047001.2,N
1567766655.4,286046996.5,N
1567766675.2,286046995.1,N
1567766695.0,286046994.1,N
1567766695.9,286046994.1,N
1567766715.8,286046992.0,N
1567766735.6,286046992.9,N
1567766755.5,286046991.9,N
1567766775.3,286046997.4,N
1567766795.1,286046996.6,N
1567766815.9,286046997.3,N
1567766835.7,286046999.1,N
1567766855.5,286046998.2,N
1567766875.4,286046999.9,N
1567766895.2,286047002.3,N
1567766915.1,286046998.1,N
1567766916.0,286046998.1,N
1567766935.8,286046999.2,N
1567766955.6,286047000.8,N
1567766975.5,286047000.5,N
1567766995.3,286047001.7,N
1567767015.1,286047003.4,N
1567767035.9,286047005.4,N
1567767055.7,286047004.7,N
1567767075.6,286047003.4,N
1567767095.4,286047004.5,N
1567767115.2,286047007.2,N
1567767135.1,286047006.0,N
1567767136.0,286047006.0,N
1567767155.8,286047005.6,N
1567767175.6,286047003.1,N
1567767195.5,286047004.1,N
1567767215.3,286047003.1,N
1567767235.2,286047000.2,N
1567767255.9,286046999.2,N
1567767275.7,286046999.5,N
1567767295.6,286046999.3,N
1567767315.4,286046998.1,N
1567767335.2,286046998.5,N
1567767355.1,286047002.1,N
1567767356.0,286047002.1,N
1567767375.8,286047003.6,N
1567767395.7,286047003.3,N
1567767415.5,286047005.4,N
1567767435.3,286047003.1,N
1567767455.2,286047001.8,N
1567767475.0,286047001.5,N
1567767475.9,286047001.5,N
1567767495.7,286047004.4,N
1567767515.6,286047001.8,N
1567767535.4,286047002.6,N
1567767555.3,286047001.1,N
1567767575.1,286046999.6,N
1567767576.0,286046999.6,N
1567767595.8,286046996.9,N
